Location: Morlupo
(42.1333°N, 12.5000°E)
Time: 15:38:00
(UTC+00:00)

Abrixas rocket - Pass Details

Date: 18 September 2020
Orbit: 328 x 335 km, 48.4° (Epoch: 26 October)

Event Time Altitude Azimuth Distance (km) Brightness Sun altitude
Rises 17:53:41 0° 267° (W) 2,094 7.7 -8.2°
Reaches altitude 10° 17:55:48 10° 278° (W) 1,257 6.4 -8.6°
Maximum altitude 17:58:22 31° 344° (NNW) 605 3.3 -9.0°
Drops below altitude 10° 18:00:55 10° 50° (NE) 1,254 4.3 -9.5°
Enters shadow 18:01:23 - 54° (NE) 1,433 4.6 -9.6°
